[[{"header":{"parameterUnit":"m.s-1","parameterCategory":1,"la1":30.2991,"la2":30.254,"lo1":-89.0895,"lo2":-89.0444,"dy":0.0017,"dx":0.0017,"nx":28,"ny":28,"refTime":"2026-01-06T03:00:00:Z","depth":0,"parameterNumber":2,"parameterNumberName":"U-component_of_WINDS"},"data":[0,0,0,0,0,0,0,0,0,0,0,0,0,0,0,0,0,0,0,0,0,0,0,0,0,0,0,0,0,0,0,0,0,0,0,0,0,0,0,0,0,0,0,0,0,0,0,0,0,0,0,0,0,0,0,0,0,0,2.3678,2.3679,0,2.3778,2.3779,2.3781,2.3719,2.3716,2.3713,2.3711,2.3819,2.3825,2.383,0,0,0,0,0,0,0,0,0,0,0,0,0,2.344,2.3444,2.3678,2.3679,2.368,2.3778,2.378,2.3781,2.372,2.3716,2.3713,2.3709,2.3817,2.3824,2.3831,0,0,0,0,0,0,0,0,0,0,0,0,0,2.3542,2.3446,2.3678,2.3661,2.3661,2.3778,2.378,2.3781,2.372,2.3716,2.3712,2.3708,2.3815,2.3823,2.3832,2.3972,0,0,2.3857,2.3861,0,0,0,0,0,0,0,0,2.3536,2.3551,2.3663,2.3663,2.3662,2.3732,2.3735,2.3845,2.3722,2.3698,2.371,2.3705,2.3794,2.3804,2.3833,2.3977,2.3981,2.3858,2.3863,2.3867,2.3869,0,0,0,0,0,0,0,2.3529,2.3546,2.3718,2.3664,2.3664,2.3651,2.3661,2.3756,2.377,2.37,2.3695,2.3708,2.3793,2.3825,2.3835,2.3983,2.3858,2.3865,2.3871,2.3874,2.4251,2.4256,0,0,0,0,0,0,2.3523,2.3541,2.3714,2.3721,2.3587,2.3659,2.367,2.3714,2.3768,2.3772,2.3712,2.3705,2.3812,2.3825,2.3838,2.4008,2.3867,2.3875,2.388,2.4246,2.4252,2.4257,0,0,0,0,0,0,2.3518,2.3539,2.371,2.363,2.365,2.3668,2.3718,2.3718,2.3749,2.3777,2.378,2.3741,2.3809,2.3826,2.3939,2.4011,2.3879,2.3886,2.424,2.4248,2.4255,2.4348,0,0,0,0,0,0,2.3511,2.3537,2.3589,2.3631,2.3655,2.3808,2.3722,2.3723,2.3764,2.3756,2.3805,2.381,2.3807,2.3927,2.3948,2.402,2.3893,2.4234,2.4244,2.4252,2.4339,2.4358,2.4374,0,0,0,0,0,2.3503,2.3612,2.3592,2.3613,2.372,2.3812,2.3826,2.382,2.3769,2.3823,2.3841,2.3808,2.3999,2.3939,2.3962,2.4038,2.4229,2.4241,2.4252,2.4331,2.4354,2.4373,0,0,0,0,0,0,2.3579,2.3617,2.3595,2.372,2.3764,2.3802,2.3869,2.3844,2.3903,2.3894,2.3885,2.3897,2.4015,2.4038,2.397,2.4178,2.4107,2.4123,2.4159,2.4181,2.4199,2.4192,2.39,0,0,0,0,0,2.361,2.368,2.371,2.3818,2.384,2.3851,2.3891,2.3882,2.3927,2.3946,2.3972,2.4019,2.409,2.4136,2.4203,2.4341,2.4353,2.4405,2.4423,2.4437,2.4452,2.453,2.4554,2.4294,2.4294,2.4294,0,0,2.3675,2.3705,2.375,2.3834,2.3866,2.3941,2.3867,2.3949,2.4005,2.3959,2.4067,2.4088,2.414,2.4267,2.4324,2.429,2.4526,2.4451,2.4462,2.447,2.4544,2.4568,2.459,2.4302,2.43,2.4299,0,0,2.3833,2.3861,2.3955,2.3989,2.4039,2.4045,2.4068,2.4111,2.4123,2.4231,2.4198,2.4267,2.4388,2.4427,2.4463,2.4638,2.4611,2.466,2.4753,2.4829,2.4849,2.4868,2.4933,2.4956,2.4674,2.4674,2.4675,0,2.3909,2.4018,2.4007,2.4092,2.4132,2.4092,2.4189,2.4223,2.4293,2.4322,2.4281,2.4435,2.4466,2.4603,2.4646,2.4675,2.4704,2.4655,2.4847,2.4865,2.4882,2.4944,2.4968,2.468,2.468,2.4679,2.4678,0,2.411,2.4187,2.4258,2.4325,2.4372,2.4463,2.4468,2.4518,2.4506,2.4518,2.463,2.4667,2.4742,2.4773,2.4762,2.491,2.4887,2.4847,2.4776,2.4913,2.4971,2.4995,2.4689,2.4686,2.4685,2.4683,0,0,2.4318,2.4379,2.4405,2.4436,2.4489,2.455,2.464,2.4712,2.4756,2.4806,2.4883,2.4988,2.4952,2.4993,2.4986,2.5052,2.5193,2.5005,2.5006,2.5041,2.5361,2.5392,2.542,2.5174,2.5178,2.5182,2.5358,0,2.4481,2.4636,2.463,2.4777,2.485,2.4814,2.4893,2.4936,2.495,2.5016,2.5032,2.5107,2.5052,2.5077,2.5141,2.5162,2.5257,2.5149,2.5249,2.5253,2.5239,2.545,2.5483,2.5646,2.538,2.5384,2.5387,0,2.4691,2.4747,2.4901,2.4946,2.4976,2.5047,2.5114,2.5176,2.5225,2.5231,2.5277,2.526,2.5355,2.528,2.5412,2.5339,2.538,2.5396,2.5403,2.5413,2.5329,2.5469,2.5698,2.5724,2.5422,2.5419,2.5417,0,2.483,2.4945,2.5052,2.508,2.5134,2.5185,2.521,2.5254,2.5299,2.5358,2.5387,2.5457,2.5495,2.5551,2.5555,2.5499,2.569,2.5614,2.57,2.57,2.5743,2.574,2.5984,2.5766,2.5765,2.5765,2.5764,0,2.5014,2.511,2.5116,2.5182,2.529,2.5283,2.5391,2.5411,2.5451,2.5523,2.5497,2.5565,2.5565,2.5636,2.5639,2.575,2.5767,2.5777,2.5777,2.5781,2.578,2.5808,2.5798,2.5771,2.577,2.5768,2.5767,0,2.5188,2.5195,2.5311,2.5352,2.5365,2.5443,2.548,2.5545,2.5556,2.5648,2.5669,2.5689,2.5771,2.578,2.5876,2.5878,2.6013,2.6,2.5996,2.5995,2.6081,2.6074,2.6354,2.6392,2.6146,2.6148,2.615,0,2.5305,2.5378,2.5428,2.5474,2.5501,2.5575,2.562,2.5617,2.5666,2.5728,2.5787,2.5866,2.5929,2.6062,2.6087,2.6161,2.6151,2.6244,2.6162,2.6164,2.6156,2.6152,2.6161,2.626,2.6263,2.6265,2.6267,0,2.5513,2.5514,2.5579,2.5647,2.5702,2.5756,2.5806,2.5845,2.5849,2.5906,2.5988,2.6038,2.6136,2.6216,2.6289,2.6317,2.6295,2.6292,2.6317,2.6322,2.6318,2.6324,2.6042,2.6286,2.6285,2.6283,2.6282,2.6281,2.5664,2.5729,2.5774,2.5849,2.5887,2.5935,2.5998,2.6019,2.6087,2.6166,2.616,2.6253,2.6303,2.6399,2.6433,2.6507,2.6476,2.6511,2.652,2.6529,2.6539,2.6304,2.652,2.652,2.6519,2.6519,2.6518,0,2.5873,2.5901,2.597,2.6041,2.6101,2.6072,2.6127,2.618,2.6261,2.6309,2.6372,2.6469,2.6547,2.6578,2.6656,2.6709,2.6701,2.673,2.6727,2.6735,2.6561,2.6533,2.6736,2.6736,2.6736,2.6736,2.6735,2.6735,2.5989,2.6098,2.6104,2.6233,2.626,2.635,2.6384,2.643,2.6468,2.6577,2.6642,2.6661,2.6703,2.6784,2.6856,2.6863,2.6894,2.6928,2.6931,2.6769,2.6747,2.6726,2.67,2.6934,2.6935,2.71,2.7101,2.7102]},{"header":{"parameterUnit":"m.s-1","parameterCategory":1,"la1":30.2991,"la2":30.254,"lo1":-89.0895,"lo2":-89.0444,"dy":0.0017,"dx":0.0017,"nx":28,"ny":28,"refTime":"2026-01-06T03:00:00:Z","depth":0,"parameterNumber":3,"parameterNumberName":"V-component_of_WINDS"},"data":[0,0,0,0,0,0,0,0,0,0,0,0,0,0,0,0,0,0,0,0,0,0,0,0,0,0,0,0,0,0,0,0,0,0,0,0,0,0,0,0,0,0,0,0,0,0,0,0,0,0,0,0,0,0,0,0,0,0,4.639,4.6392,0,4.6564,4.6566,4.6568,4.6574,4.6572,4.657,4.6568,4.6741,4.6747,4.6754,0,0,0,0,0,0,0,0,0,0,0,0,0,4.6059,4.6065,4.639,4.6392,4.6395,4.6564,4.6566,4.6569,4.6574,4.6572,4.6569,4.6567,4.6739,4.6747,4.6755,0,0,0,0,0,0,0,0,0,0,0,0,0,4.6215,4.6067,4.639,4.6418,4.6422,4.6563,4.6566,4.6569,4.6575,4.6572,4.6568,4.6566,4.6736,4.6746,4.6756,4.6879,0,0,4.6786,4.679,0,0,0,0,0,0,0,0,4.6206,4.6227,4.6412,4.6416,4.6421,4.6544,4.6513,4.6673,4.6576,4.6517,4.6568,4.6564,4.6678,4.6692,4.6732,4.6887,4.6895,4.6787,4.6793,4.6797,4.68,0,0,0,0,0,0,0,4.6195,4.6219,4.6459,4.6414,4.642,4.642,4.6439,4.6543,4.6612,4.6522,4.6522,4.6543,4.668,4.6722,4.6736,4.6897,4.6786,4.6795,4.6801,4.6805,4.7164,4.7167,0,0,0,0,0,0,4.6179,4.621,4.6453,4.6464,4.6304,4.6429,4.645,4.6508,4.6611,4.6624,4.6546,4.6543,4.6707,4.6724,4.6742,4.6895,4.6797,4.6806,4.6812,4.716,4.7164,4.7168,0,0,0,0,0,0,4.6172,4.6201,4.6446,4.6338,4.6369,4.6438,4.6503,4.6513,4.6555,4.663,4.6642,4.6577,4.6705,4.6728,4.6846,4.6901,4.681,4.6819,4.7156,4.7161,4.7166,4.72,0,0,0,0,0,0,4.6163,4.6198,4.6247,4.6339,4.6375,4.6549,4.6506,4.6519,4.6573,4.6571,4.6662,4.6674,4.6704,4.6831,4.6855,4.6912,4.6827,4.7151,4.7158,4.7165,4.7194,4.7206,4.7216,0,0,0,0,0,4.6151,4.6248,4.625,4.6279,4.6437,4.6552,4.6572,4.6607,4.6577,4.6626,4.6674,4.6671,4.689,4.6843,4.687,4.6931,4.7148,4.7156,4.7164,4.7189,4.7204,4.7215,0,0,0,0,0,0,4.6159,4.6261,4.6263,4.6393,4.6464,4.6552,4.6615,4.662,4.6699,4.6694,4.6732,4.6752,4.6869,4.6912,4.6857,4.7057,4.7015,4.7029,4.7025,4.7039,4.705,4.7038,4.6835,0,0,0,0,0,4.6177,4.6263,4.6346,4.6453,4.6488,4.6546,4.6597,4.6617,4.6691,4.6721,4.6777,4.6848,4.6933,4.6988,4.707,4.72,4.722,4.7255,4.7266,4.7274,4.7286,4.7359,4.7376,4.7195,4.7195,4.7195,0,0,4.6213,4.6279,4.633,4.6456,4.6513,4.6601,4.6571,4.6664,4.6729,4.6734,4.685,4.6894,4.6975,4.7099,4.7157,4.7138,4.7341,4.7285,4.7291,4.7299,4.7369,4.7386,4.7402,4.7201,4.72,4.7199,0,0,4.6324,4.6382,4.6478,4.6537,4.6624,4.6662,4.6685,4.6773,4.6803,4.692,4.6926,4.7003,4.7148,4.7206,4.7255,4.7388,4.7389,4.7414,4.747,4.7541,4.7555,4.7568,4.7617,4.7634,4.7425,4.7425,4.7425,0,4.6357,4.6491,4.6527,4.6621,4.6676,4.6687,4.6784,4.6838,4.6947,4.6985,4.6962,4.7146,4.7201,4.734,4.7373,4.7411,4.7439,4.7404,4.755,4.7564,4.7576,4.7623,4.7641,4.7428,4.7427,4.7427,4.7427,0,4.6528,4.6621,4.6687,4.6795,4.6857,4.6952,4.7002,4.706,4.7075,4.7115,4.7233,4.73,4.7397,4.7431,4.7445,4.7572,4.7558,4.7543,4.7502,4.7595,4.764,4.7659,4.7431,4.7431,4.743,4.7429,0,0,4.665,4.6777,4.6801,4.6851,4.6948,4.702,4.7115,4.7211,4.7261,4.7335,4.7416,4.7539,4.7526,4.7581,4.7602,4.7664,4.7767,4.7641,4.7644,4.7664,4.7912,4.7924,4.7945,4.7767,4.7771,4.7774,4.7906,0,4.6773,4.6945,4.698,4.7129,4.7215,4.7226,4.7309,4.7377,4.7416,4.7494,4.7536,4.7624,4.7599,4.7633,4.7694,4.7742,4.7818,4.7732,4.7843,4.7846,4.7824,4.7968,4.7981,4.8103,4.7923,4.7926,4.7929,0,4.694,4.7021,4.7179,4.7266,4.7303,4.7378,4.7469,4.7543,4.762,4.7644,4.7707,4.7721,4.782,4.7774,4.791,4.7851,4.7898,4.7928,4.7934,4.7947,4.7894,4.7986,4.8142,4.8161,4.7956,4.7954,4.7952,0,4.7015,4.7163,4.7277,4.7319,4.7423,4.7475,4.752,4.7595,4.7651,4.773,4.7766,4.7855,4.7904,4.7972,4.8009,4.7972,4.8143,4.81,4.8166,4.8166,4.8203,4.8201,4.8371,4.8231,4.823,4.823,4.823,0,4.7149,4.7245,4.7313,4.7383,4.7491,4.7529,4.7635,4.7679,4.7746,4.7824,4.7838,4.7911,4.7956,4.8035,4.8064,4.8173,4.8195,4.8217,4.8224,4.8217,4.8214,4.8249,4.8242,4.8235,4.8234,4.8233,4.8232,0,4.7252,4.7301,4.7426,4.7515,4.7539,4.7615,4.7691,4.7759,4.7798,4.7897,4.7923,4.7984,4.8078,4.8122,4.8238,4.8258,4.8382,4.8383,4.8357,4.836,4.8425,4.8418,4.8624,4.8654,4.8493,4.8494,4.8495,0,4.7335,4.741,4.7508,4.7562,4.761,4.7697,4.7755,4.7795,4.7854,4.7948,4.8005,4.81,4.8178,4.8327,4.8382,4.847,4.8474,4.854,4.8487,4.8478,4.8477,4.8473,4.8481,4.855,4.8551,4.8553,4.8554,0,4.7479,4.75,4.7583,4.7676,4.7745,4.7819,4.7892,4.7935,4.7986,4.8052,4.815,4.821,4.8329,4.8424,4.8516,4.8561,4.8567,4.857,4.859,4.8584,4.8567,4.8579,4.8385,4.8565,4.8564,4.8563,4.8562,4.8562,4.7576,4.7643,4.7723,4.7816,4.7875,4.7943,4.8012,4.8061,4.8144,4.8245,4.8263,4.8367,4.8442,4.8567,4.8616,4.8697,4.8681,4.871,4.8718,4.8725,4.873,4.8553,4.8713,4.8713,4.8713,4.8713,4.8712,0,4.7721,4.7773,4.7858,4.7961,4.8034,4.8034,4.8114,4.8175,4.8267,4.8337,4.8415,4.8527,4.8618,4.868,4.8772,4.8825,4.883,4.8848,4.8846,4.8856,4.8737,4.8711,4.8843,4.8843,4.8843,4.8843,4.8843,4.8843,4.7806,4.7921,4.7951,4.8095,4.8146,4.8249,4.8296,4.8358,4.8415,4.854,4.8617,4.8657,4.8725,4.8822,4.8906,4.8921,4.8955,4.8975,4.899,4.8878,4.8864,4.8851,4.8827,4.8981,4.8982,4.9103,4.9104,4.9105]}]]